Location: ???? ?????
(30.0052°N, 31.2891°E)
Time: 03:43:12
(UTC+00:00)

Iridium 16 - Visible Passes

Search period start: 28 January 2023 00:00
Search period end: 07 February 2023 00:00
Orbit: 765 x 770 km, 86.4° (Epoch: 27 January)

Date Brightness Start Highest point End Pass type
(mag) Time Alt. Az. Time Alt. Az. Time Alt. Az.
28 Jan 6.4 03:09:13 10° SSE 03:14:10 49° E 03:19:07 10° NNE visible
29 Jan 7.8 02:33:56 10° SE 02:37:55 23° E 02:41:53 10° NNE visible
29 Jan 6.3 04:13:49 10° SW 04:18:12 28° W 04:22:36 10° NNW visible
29 Jan 8.7 16:31:03 10° WNW 16:32:50 12° W 16:34:36 10° W visible
30 Jan 8.7 02:01:17 10° E 02:01:48 10° E 02:02:20 10° ENE visible
30 Jan 5.5 03:36:35 10° SSW 03:41:39 62° W 03:46:46 10° N visible
30 Jan 8.0 15:52:29 10° NNW 15:56:42 26° W 16:00:54 10° SW visible
31 Jan 6.0 03:00:12 10° SSE 03:05:15 61° E 03:10:20 10° N visible
01 Feb 7.4 02:24:39 10° SE 02:28:58 28° E 02:33:18 10° NNE visible
01 Feb 6.5 04:05:18 10° SW 04:09:22 23° W 04:13:26 10° NNW visible
02 Feb 8.4 01:50:36 10° ESE 01:52:50 13° E 01:55:02 10° NE visible
02 Feb 5.6 03:27:48 10° SSW 03:32:47 50° W 03:37:47 10° N visible
03 Feb 5.6 02:51:13 10° S 02:56:20 75° E 03:01:29 10° N visible
04 Feb 7.0 02:15:26 10° SSE 02:20:01 34° E 02:24:37 10° NNE visible
04 Feb 6.7 03:56:54 10° SW 04:00:32 19° W 04:04:10 10° NW visible
05 Feb 8.2 01:40:50 10° ESE 01:43:50 16° E 01:46:51 10° NE visible
05 Feb 5.8 03:19:05 10° SSW 03:23:54 41° W 03:28:45 10° NNW visible
06 Feb 5.4 02:42:17 10° S 02:47:26 90° WNW 02:52:36 10° N visible
